GW5264 Weather Reports


time (UTC)temp
F
wind
direction
speed
knots
gust
knots
rain 1hr
in
rain 24hr
in
rain mn
in
humidity
%
barometer
mb
20260510164140 79 334 1.7 2.6 0.00 0.00 0.00 46 1016.0
20260510163635 79 69 5.2 7.0 0.00 0.00 0.00 42 1016.2
20260510163131 78 150 0.0 1.7 0.00 0.00 0.00 47 1016.2
20260510162625 77 150 0.9 2.6 0.00 0.00 0.00 47 1016.3
20260510162122 78 50 3.5 7.0 0.00 0.00 0.00 44 1016.4
20260510161618 79 119 0.0 0.9 0.00 0.00 0.00 46 1016.7
20260510161115 78 233 0.9 1.7 0.00 0.00 0.00 47 1016.4
20260510160612 77 242 1.7 2.6 0.00 0.00 0.00 46 1016.7
20260510160112 77 194 0.0 0.9 0.00 0.00 0.00 46 1017.0
20260510155609 75 293 1.7 2.6 0.00 0.00 0.00 47 1017.0
20260510155105 76 295 1.7 2.6 0.00 0.00 0.00 50 1017.1
20260510154600 75 110 0.9 2.6 0.00 0.00 0.00 51 1017.1
20260510154056 75 151 1.7 2.6 0.00 0.00 0.00 51 1017.1
20260510153551 74 268 1.7 2.6 0.00 0.00 0.00 51 1017.3
20260510153048 74 174 5.2 7.0 0.00 0.00 0.00 50 1017.2
20260510152545 73 162 0.9 3.5 0.00 0.00 0.00 52 1017.2
20260510152041 73 100 1.7 3.5 0.00 0.00 0.00 56 1017.1
20260510151538 75 180 3.5 5.2 0.00 0.00 0.00 51 1017.1
20260510151036 73 131 1.7 5.2 0.00 0.00 0.00 58 1017.1
20260510150530 71 77 2.6 3.5 0.00 0.00 0.00 63 1017.2
20260510150027 70 290 0.9 1.7 0.00 0.00 0.00 67 1017.2
20260510145523 69 84 1.7 1.7 0.00 0.00 0.00 75 1017.1
20260510145020 68 93 0.9 1.7 0.00 0.00 0.00 75 1017.3
20260510144517 68 83 0.9 1.7 0.00 0.00 0.00 75 1017.1
20260510144013 67 95 0.0 0.9 0.00 0.00 0.00 75 1017.1
20260510143508 66 94 0.9 1.7 0.00 0.00 0.00 76 1017.2
20260510143005 65 68 0.0 0.0 0.00 0.00 0.00 81 1017.2
20260510142502 66 95 0.0 0.0 0.00 0.00 0.00 80 1017.3
20260510141958 64 93 0.0 0.0 0.00 0.00 0.00 81 1017.2
20260510141455 64 113 0.0 0.0 0.00 0.00 0.00 84 1017.1
20260510140952 62 113 0.0 0.0 0.00 0.00 0.00 84 1017.1
20260510140448 61 116 0.0 0.0 0.00 0.00 0.00 88 1016.9
20260510135947 60 75 0.0 0.0 0.00 0.00 0.00 90 1017.2
20260510135443 60 81 0.0 0.0 0.00 0.00 0.00 89 1017.2
20260510134941 58 93 0.0 0.0 0.00 0.00 0.00 91 1017.3
20260510134438 58 95 0.0 0.0 0.00 0.00 0.00 90 1017.1
20260510133935 58 73 0.0 0.0 0.00 0.00 0.00 90 1017.4
20260510133430 56 78 0.0 0.0 0.00 0.00 0.00 93 1017.4
20260510132925 55 81 0.0 0.0 0.00 0.00 0.00 96 1017.5
20260510132423 55 67 0.0 0.0 0.00 0.00 0.00 96 1017.4
20260510131920 54 81 0.0 0.0 0.00 0.00 0.00 97 1017.5
20260510131418 53 306 0.0 0.0 0.00 0.00 0.00 99 1017.6
20260510130914 53 306 0.0 0.0 0.00 0.00 0.00 99 1017.7
20260510130412 53 306 0.0 0.0 0.00 0.00 0.00 99 1017.9
20260510125908 52 332 0.0 0.0 0.00 0.00 0.00 99 1017.6
20260510125404 51 332 0.0 0.0 0.00 0.00 0.00 99 1017.8
20260510124901 51 332 0.0 0.0 0.00 0.00 0.00 99 1017.7
20260510124358 51 332 0.0 0.0 0.00 0.00 0.00 99 1017.7
20260510123854 50 333 0.0 0.0 0.00 0.00 0.00 99 1017.8
20260510123349 49 333 0.0 0.0 0.00 0.00 0.00 99 1017.7
20260510122846 49 333 0.0 0.0 0.00 0.00 0.00 99 1017.6
20260510122341 49 11 0.0 0.0 0.00 0.00 0.00 99 1017.6
20260510121838 49 11 0.0 0.0 0.00 0.00 0.00 99 1017.7
20260510121336 49 11 0.0 0.0 0.00 0.00 0.00 99 1017.7
20260510120833 49 11 0.0 0.0 0.00 0.00 0.00 99 1017.6
20260510120330 48 11 0.0 0.0 0.00 0.00 0.00 99 1017.7
20260510115825 48 11 0.0 0.0 0.00 0.00 0.00 99 1017.5
20260510115323 48 10 0.0 0.0 0.00 0.00 0.00 99 1017.5
20260510114819 47 10 0.0 0.0 0.00 0.00 0.00 99 1017.3
20260510114316 47 11 0.0 0.0 0.00 0.00 0.00 99 1017.2
20260510113811 47 11 0.0 0.0 0.00 0.00 0.00 99 1017.2
20260510113308 47 11 0.0 0.0 0.00 0.00 0.00 99 1017.0
20260510112805 47 11 0.0 0.0 0.00 0.00 0.00 99 1017.3
20260510112305 46 11 0.0 0.0 0.00 0.00 0.00 99 1017.1
20260510111757 46 11 0.0 0.0 0.00 0.00 0.00 99 1017.0
20260510111254 46 11 0.0 0.0 0.00 0.00 0.00 99 1017.1
20260510110753 47 11 0.0 0.0 0.00 0.00 0.00 99 1017.1
20260510110252 46 11 0.0 0.0 0.00 0.00 0.00 99 1016.9
20260510105752 46 10 0.0 0.0 0.00 0.00 0.00 99 1017.0
20260510105247 46 11 0.0 0.0 0.00 0.00 0.00 99 1016.6
20260510104743 46 11 0.0 0.0 0.00 0.00 0.00 99 1016.7
20260510104241 46 11 0.0 0.0 0.00 0.00 0.00 99 1016.7
20260510103737 46 11 0.0 0.0 0.00 0.00 0.00 99 1016.7
20260510103234 46 11 0.0 0.0 0.00 0.00 0.00 99 1016.3
20260510102734 46 11 0.0 0.0 0.00 0.00 0.00 99 1016.4
20260510102230 46 11 0.0 0.0 0.00 0.00 0.00 99 1016.3
20260510101728 46 11 0.0 0.0 0.00 0.00 0.00 99 1016.2
20260510101226 46 11 0.0 0.0 0.00 0.00 0.00 99 1016.2
20260510100721 46 11 0.0 0.0 0.00 0.00 0.00 99 1016.2
20260510100220 46 11 0.0 0.0 0.00 0.00 0.00 99 1016.1
20260510095715 46 11 0.0 0.0 0.00 0.00 0.00 99 1016.0
20260510095210 46 11 0.0 0.0 0.00 0.00 0.00 99 1015.8
20260510094709 46 11 0.0 0.0 0.00 0.00 0.00 99 1015.8
20260510094205 47 11 0.0 0.0 0.00 0.00 0.00 99 1015.9
20260510093700 47 11 0.0 0.0 0.00 0.00 0.00 99 1015.8
20260510093158 47 11 0.0 0.0 0.00 0.00 0.00 99 1015.7
20260510092654 47 11 0.0 0.0 0.00 0.00 0.00 99 1015.7
20260510092150 47 11 0.0 0.0 0.00 0.00 0.00 99 1015.6
20260510091646 47 11 0.0 0.0 0.00 0.00 0.00 99 1015.7
20260510091142 47 11 0.0 0.0 0.00 0.00 0.00 99 1015.6
20260510090640 47 11 0.0 0.0 0.00 0.00 0.00 99 1015.6
20260510090136 47 11 0.0 0.0 0.00 0.00 0.00 99 1015.5
20260510085631 47 11 0.0 0.0 0.00 0.00 0.00 99 1015.5
20260510085126 47 11 0.0 0.0 0.00 0.00 0.00 99 1015.5
20260510084623 47 11 0.0 0.0 0.00 0.00 0.00 99 1015.4
20260510084120 47 11 0.0 0.0 0.00 0.00 0.00 99 1015.3
20260510083616 47 11 0.0 0.0 0.00 0.00 0.00 99 1015.5
20260510083113 47 11 0.0 0.0 0.00 0.00 0.00 99 1015.5
20260510082609 47 11 0.0 0.0 0.00 0.00 0.00 99 1015.4
20260510082105 47 11 0.0 0.0 0.00 0.00 0.00 99 1015.6
20260510081600 47 11 0.0 0.0 0.00 0.00 0.00 99 1015.3
20260510081056 47 11 0.0 0.0 0.00 0.00 0.00 99 1015.3
20260510080555 47 11 0.0 0.0 0.00 0.00 0.00 99 1015.2
20260510080052 47 11 0.0 0.0 0.00 0.00 0.00 99 1015.3
20260510075550 47 11 0.0 0.0 0.00 0.00 0.00 99 1015.2
20260510075046 47 11 0.0 0.0 0.00 0.00 0.00 99 1015.2
20260510074544 47 11 0.0 0.0 0.00 0.00 0.00 99 1015.0
20260510074039 47 11 0.0 0.0 0.00 0.00 0.00 99 1015.0
20260510073535 47 11 0.0 0.0 0.00 0.00 0.00 99 1015.0
20260510073033 48 11 0.0 0.0 0.00 0.00 0.00 99 1015.1
20260510072529 48 11 0.0 0.0 0.00 0.00 0.00 99 1015.0
20260510072025 48 11 0.0 0.0 0.00 0.00 0.00 99 1015.0
20260510071521 48 11 0.0 0.0 0.00 0.00 0.00 99 1015.1
20260510071020 48 11 0.0 0.0 0.00 0.00 0.00 99 1014.9
20260510070516 48 11 0.0 0.0 0.00 0.00 0.00 99 1014.9
20260510070013 48 11 0.0 0.0 0.00 0.00 0.00 99 1014.8
20260510065509 48 11 0.0 0.0 0.00 0.00 0.00 99 1014.9
20260510065005 48 11 0.0 0.0 0.00 0.00 0.00 99 1014.8
20260510064502 48 11 0.0 0.0 0.00 0.00 0.00 99 1015.0
20260510063959 48 11 0.0 0.0 0.00 0.00 0.00 99 1015.1
20260510063455 48 11 0.0 0.0 0.00 0.00 0.00 99 1015.1
20260510062953 48 11 0.0 0.0 0.00 0.00 0.00 99 1015.1
20260510062448 48 11 0.0 0.0 0.00 0.00 0.00 99 1015.0
20260510061944 49 11 0.0 0.0 0.00 0.00 0.00 99 1015.0
20260510061441 49 11 0.0 0.0 0.00 0.00 0.00 99 1014.9
20260510060937 49 11 0.0 0.0 0.00 0.00 0.00 99 1015.1
20260510060434 49 11 0.0 0.0 0.00 0.00 0.00 99 1015.1
20260510055930 49 11 0.0 0.0 0.00 0.00 0.00 99 1015.0
20260510055426 49 11 0.0 0.0 0.00 0.00 0.00 99 1015.0
20260510054924 49 11 0.0 0.0 0.00 0.00 0.00 99 1014.9
20260510054420 49 11 0.0 0.0 0.00 0.00 0.00 99 1015.0
20260510053915 49 11 0.0 0.0 0.00 0.00 0.00 99 1014.9
20260510053411 49 11 0.0 0.0 0.00 0.00 0.00 99 1015.1
20260510052907 49 11 0.0 0.0 0.00 0.00 0.00 99 1014.9
20260510052403 49 11 0.0 0.0 0.00 0.00 0.00 99 1015.1
20260510051859 49 11 0.0 0.0 0.00 0.00 0.00 99 1015.0
20260510051355 49 11 0.0 0.0 0.00 0.00 0.00 99 1015.1
20260510050852 49 10 0.0 0.0 0.00 0.00 0.00 99 1015.2
20260510050349 49 10 0.0 0.0 0.00 0.00 0.00 99 1015.1
20260510045846 50 11 0.0 0.0 0.00 0.00 0.00 99 1015.3
20260510045343 50 11 0.0 0.0 0.00 0.00 0.00 99 1015.2
20260510044840 50 11 0.0 0.0 0.00 0.00 0.00 99 1015.3
20260510044337 50 11 0.0 0.0 0.00 0.00 0.00 99 1015.2
20260510043833 50 11 0.0 0.0 0.00 0.00 0.00 99 1015.3
20260510043329 50 18 0.0 0.0 0.00 0.00 0.00 99 1015.2
20260510042827 50 18 0.0 0.0 0.00 0.00 0.00 99 1015.1
20260510042323 51 18 0.0 0.0 0.00 0.00 0.00 99 1015.0
20260510041819 51 18 0.0 0.0 0.00 0.00 0.00 99 1015.3
20260510041317 50 18 0.0 0.0 0.00 0.00 0.00 99 1015.0
20260510040814 51 18 0.0 0.0 0.00 0.00 0.00 99 1015.2
20260510040310 51 18 0.0 0.0 0.00 0.00 0.00 99 1015.1
20260510035806 51 18 0.0 0.0 0.00 0.00 0.00 99 1015.1
20260510035306 51 18 0.0 0.0 0.00 0.00 0.00 99 1015.1
20260510034758 51 18 0.0 0.0 0.00 0.00 0.00 99 1014.9
20260510034256 51 18 0.0 0.0 0.00 0.00 0.00 99 1014.8
20260510033752 51 18 0.0 0.0 0.00 0.00 0.00 99 1014.7
20260510033250 51 18 0.0 0.0 0.00 0.00 0.00 99 1014.6
20260510032746 52 64 0.0 0.0 0.00 0.00 0.00 99 1014.7
20260510032242 52 64 0.0 0.0 0.00 0.00 0.00 99 1014.6
20260510031737 52 64 0.0 0.0 0.00 0.00 0.00 99 1014.5
20260510031233 52 64 0.0 0.0 0.00 0.00 0.00 98 1014.6
20260510030733 52 64 0.0 0.0 0.00 0.00 0.00 98 1014.4
20260510030225 52 64 0.0 0.0 0.00 0.00 0.00 98 1014.6
20260510025722 53 64 0.0 0.0 0.00 0.00 0.00 98 1014.3
20260510025220 53 64 0.0 0.0 0.00 0.00 0.00 98 1014.5
20260510024716 53 64 0.0 0.0 0.00 0.00 0.00 98 1014.4
20260510024212 53 57 0.0 0.0 0.00 0.00 0.00 98 1014.4
20260510023708 53 58 0.0 0.0 0.00 0.00 0.00 97 1014.3
20260510023206 53 57 0.0 0.0 0.00 0.00 0.00 97 1014.4
20260510022701 53 57 0.0 0.0 0.00 0.00 0.00 97 1013.9
20260510022156 54 57 0.0 0.0 0.00 0.00 0.00 97 1014.2
20260510021651 54 58 0.0 0.0 0.00 0.00 0.00 96 1014.1
20260510021149 54 354 0.0 0.0 0.00 0.00 0.00 96 1014.1
20260510020643 54 72 0.0 0.0 0.00 0.00 0.00 95 1014.3
20260510020139 55 72 0.0 0.0 0.00 0.00 0.00 95 1014.0
20260510015636 55 73 0.0 0.0 0.00 0.00 0.00 94 1013.9
20260510015133 55 72 0.0 0.0 0.00 0.00 0.00 94 1013.8
20260510014633 55 72 0.0 0.0 0.00 0.00 0.00 94 1013.9
20260510014131 55 72 0.0 0.0 0.00 0.00 0.00 94 1013.7
20260510013630 55 72 0.0 0.0 0.00 0.00 0.00 94 1013.6
20260510013126 56 73 0.0 0.0 0.00 0.00 0.00 93 1013.4
20260510012621 56 73 0.0 0.9 0.00 0.00 0.00 93 1013.2
20260510012118 56 72 0.0 0.0 0.00 0.00 0.00 92 1013.4
20260510011616 56 72 0.0 0.0 0.00 0.00 0.00 91 1013.1
20260510011112 57 72 0.0 0.0 0.00 0.00 0.00 91 1013.0
20260510010609 57 72 0.0 0.0 0.00 0.00 0.00 91 1012.9
20260510010106 57 45 0.9 0.9 0.00 0.00 0.00 90 1012.6
20260510005601 57 49 0.0 0.0 0.00 0.00 0.00 90 1012.9
20260510005059 58 49 0.0 0.0 0.00 0.00 0.00 89 1012.7
20260510004557 58 49 0.0 0.0 0.00 0.00 0.00 89 1012.7
20260510004055 59 39 0.0 0.9 0.00 0.00 0.00 88 1012.6
20260510003551 59 39 0.0 0.0 0.00 0.00 0.00 87 1012.5
20260510003047 59 38 0.0 0.0 0.00 0.00 0.00 85 1012.4
20260510002542 60 37 0.0 0.0 0.00 0.00 0.00 85 1012.3
20260510002040 61 37 0.0 0.0 0.00 0.00 0.00 84 1012.3
20260510001537 61 359 0.0 0.0 0.00 0.00 0.00 84 1012.3
20260510001036 61 84 0.0 0.0 0.00 0.00 0.00 81 1012.2
20260510000536 62 57 0.0 0.0 0.00 0.00 0.00 81 1011.8
20260510000033 62 58 0.0 0.0 0.00 0.00 0.00 80 1012.0
20260509235530 62 58 0.0 0.9 0.00 0.00 0.00 79 1011.9
20260509235026 63 58 0.0 0.9 0.00 0.00 0.00 78 1011.7
20260509234522 64 213 0.0 0.0 0.00 0.00 0.00 74 1011.9
20260509234021 65 213 0.0 0.9 0.00 0.00 0.00 74 1011.8
20260509233518 65 0 0.0 0.0 0.00 0.00 0.00 66 1011.6
20260509233015 67 359 0.0 0.0 0.00 0.00 0.00 70 1011.7
20260509232512 69 33 0.0 0.9 0.00 0.00 0.00 66 1011.9
20260509232008 68 33 0.9 3.5 0.00 0.00 0.00 56 1011.6
20260509231505 69 32 2.6 3.5 0.00 0.00 0.00 57 1011.9
20260509231002 68 47 1.7 1.7 0.00 0.00 0.00 66 1011.5
20260509230459 69 150 0.0 0.0 0.00 0.00 0.00 61 1011.7
20260509225955 70 163 0.0 0.9 0.00 0.00 0.00 55 1011.5
20260509225451 70 163 0.0 0.9 0.00 0.00 0.00 55 1011.5
20260509224947 70 184 1.7 1.7 0.00 0.00 0.00 54 1011.6
20260509224443 70 19 1.7 1.7 0.00 0.00 0.00 53 1011.7
20260509223940 70 91 1.7 1.7 0.00 0.00 0.00 52 1011.7
20260509223436 70 184 0.9 6.1 0.00 0.00 0.00 52 1011.9
20260509222934 71 114 0.9 1.7 0.00 0.00 0.00 51 1011.8
20260509222429 70 192 2.6 2.6 0.00 0.00 0.00 52 1012.0
20260509221925 70 101 0.9 0.9 0.00 0.00 0.00 51 1012.0
20260509221422 70 224 1.7 5.2 0.00 0.00 0.00 52 1011.9
20260509220918 70 68 2.6 5.2 0.00 0.00 0.00 52 1012.0
20260509220414 70 10 2.6 6.1 0.00 0.00 0.00 52 1012.0
20260509215910 71 104 1.7 3.5 0.00 0.00 0.00 55 1011.9
20260509215401 72 105 1.7 2.6 0.00 0.00 0.00 49 1011.9
20260509214859 72 292 2.6 2.6 0.00 0.00 0.00 49 1012.3
20260509214355 72 204 2.6 5.2 0.00 0.00 0.00 49 1012.2
20260509213852 72 139 2.6 2.6 0.00 0.00 0.00 49 1012.0
20260509213347 72 238 0.0 1.7 0.00 0.00 0.00 52 1012.2
20260509212845 70 134 1.7 3.5 0.00 0.00 0.00 50 1012.0
20260509212342 70 154 4.3 7.0 0.00 0.00 0.00 50 1012.0
20260509211838 71 169 2.6 5.2 0.00 0.00 0.00 48 1012.0
20260509211334 71 241 0.0 2.6 0.00 0.00 0.00 49 1012.0
20260509210830 71 155 0.0 1.7 0.00 0.00 0.00 50 1011.8
20260509210328 71 120 0.9 1.7 0.00 0.00 0.00 50 1012.0
20260509205828 71 111 1.7 5.2 0.00 0.00 0.00 48 1011.8
20260509205323 70 120 1.7 1.7 0.00 0.00 0.00 49 1012.0
20260509204820 70 198 1.7 2.6 0.00 0.00 0.00 48 1011.8
20260509204316 70 99 1.7 3.5 0.00 0.00 0.00 48 1011.7
20260509203812 70 189 3.5 3.5 0.00 0.00 0.00 48 1011.9
20260509203309 69 202 1.7 3.5 0.00 0.00 0.00 49 1011.9
20260509202805 69 343 1.7 5.2 0.00 0.00 0.00 49 1011.7
20260509202306 69 150 0.0 2.6 0.00 0.00 0.00 50 1011.5
20260509201800 70 141 1.7 1.7 0.00 0.00 0.00 47 1011.5
20260509201258 70 161 0.9 3.5 0.00 0.00 0.00 47 1011.4
20260509200754 70 226 1.7 2.6 0.00 0.00 0.00 46 1011.5
20260509200249 71 226 2.6 2.6 0.00 0.00 0.00 45 1011.4
20260509195747 70 203 0.9 2.6 0.00 0.00 0.00 46 1011.4
20260509195242 71 204 0.9 2.6 0.00 0.00 0.00 48 1011.4
20260509194742 70 287 0.9 1.7 0.00 0.00 0.00 49 1011.5
20260509194238 70 41 1.7 2.6 0.00 0.00 0.00 46 1011.4
20260509193735 71 101 0.9 1.7 0.00 0.00 0.00 46 1011.5
20260509193235 71 80 1.7 5.2 0.00 0.00 0.00 46 1011.5
20260509192731 72 124 0.0 2.6 0.00 0.00 0.00 46 1011.6
20260509192226 72 315 1.7 7.0 0.00 0.00 0.00 50 1011.8
20260509191722 72 69 0.9 2.6 0.00 0.00 0.00 49 1011.7
20260509191219 71 149 1.7 3.5 0.00 0.00 0.00 47 1011.8
20260509190715 70 191 1.7 2.6 0.00 0.00 0.00 44 1011.6
20260509190212 70 272 2.6 2.6 0.00 0.00 0.00 46 1011.8
20260509185710 71 71 0.0 3.5 0.00 0.00 0.00 52 1011.6
20260509185205 72 179 2.6 6.1 0.00 0.00 0.00 47 1011.8
20260509184703 71 212 0.9 1.7 0.00 0.00 0.00 52 1011.7
20260509184200 70 212 0.9 1.7 0.00 0.00 0.00 47 1011.6
20260509183656 70 212 0.9 2.6 0.00 0.00 0.00 49 1011.5
20260509183151 71 207 0.9 0.9 0.00 0.00 0.00 50 1011.6
20260509182647 71 232 1.7 3.5 0.00 0.00 0.00 48 1011.6
20260509182145 71 215 2.6 3.5 0.00 0.00 0.00 48 1011.7
20260509181643 71 201 0.9 1.7 0.00 0.00 0.00 47 1011.6
20260509181140 71 201 1.7 3.5 0.00 0.00 0.00 51 1011.8
20260509180637 71 202 0.9 0.9 0.00 0.00 0.00 51 1011.9
20260509180133 71 201 0.9 5.2 0.00 0.00 0.00 51 1011.7
20260509175629 73 48 4.3 5.2 0.00 0.00 0.00 48 1011.8
20260509175126 71 214 1.7 2.6 0.00 0.00 0.00 49 1011.7
20260509174622 72 142 0.9 2.6 0.00 0.00 0.00 50 1011.9
20260509174117 73 141 1.7 2.6 0.00 0.00 0.00 51 1011.8
20260509173613 72 141 0.0 0.9 0.00 0.00 0.00 51 1011.8
20260509173109 69 141 0.9 2.6 0.00 0.00 0.00 58 1012.0
20260509172606 69 141 0.0 1.7 0.00 0.00 0.00 56 1012.0
20260509172102 69 141 0.9 0.9 0.00 0.00 0.00 56 1011.9
20260509171558 69 141 0.9 1.7 0.00 0.00 0.00 56 1011.9
20260509171054 69 141 0.9 1.7 0.00 0.00 0.00 54 1012.0
20260509170550 68 142 0.9 0.9 0.00 0.00 0.00 58 1012.3
20260509170046 67 133 0.9 1.7 0.00 0.00 0.00 56 1012.3
20260509165545 67 131 0.0 3.5 0.00 0.00 0.00 56 1012.4
20260509165040 67 150 0.0 3.5 0.00 0.00 0.00 56 1012.4